THEOS

Last updated on Thu Oct 30 2025 00:02:31 GMT+0000 (Coordinated Universal Time)

1 33396U 08049A 25302.50448780 .00000086 00000+0 60594-4 0 9994 2 33396 98.5932 1.8850 0001016 91.5354 268.5939 14.20081678885223
UTC large
Height (km)
Speed (km/s)
/
Latitude / Longitude
Inclination (degrees)
Orbital Period (minutes)
Azimuth
Elevation
Range (km)
Doppler Factor

Next 0 passes for location: London (51.5072 / 0.1276)

Sorry there are no passes over London.